QPF
0.00 0.01 0.01 0.01 0.02 0.02 0.02 0.02 0.02 0.02 0.02 0.02 0.02 0.02 0.03 0.05 0.07 0.08 0.09 0.09 0.07 0.04 0.03 0.03 0.03 0.03 0.04 0.05 0.05 0.05 0.05 0.06 0.05 0.03 0.04 0.05 0.04 0.03 0.03 0.02 0.02 0.03 0.03
0.01 0.01 0.01 0.02 0.04 0.03 0.02 0.01 0.01 0.02 0.02 0.03 0.02 0.02 0.03 0.05 0.08 0.08 0.07 0.06 0.04 0.03 0.02 0.02 0.03 0.03 0.04 0.05 0.04 0.04 0.04 0.03 0.03 0.03 0.03 0.05 0.05 0.03 0.03 0.02 0.02 0.02 0.01
0.02 0.02 0.02 0.03 0.03 0.02 0.02 0.03 0.02 0.02 0.02 0.02 0.02 0.02 0.04 0.06 0.06 0.07 0.07 0.04 0.02 0.02 0.02 0.03 0.03 0.04 0.03 0.03 0.03 0.02 0.02 0.02 0.03 0.03 0.03 0.04 0.03 0.02 0.02 0.02 0.02 0.02 0.01
0.02 0.02 0.03 0.02 0.02 0.02 0.02 0.03 0.04 0.04 0.03 0.03 0.03 0.02 0.03 0.04 0.04 0.04 0.06 0.07 0.05 0.05 0.05 0.04 0.05 0.07 0.06 0.04 0.03 0.02 0.02 0.02 0.03 0.03 0.03 0.03 0.03 0.02 0.03 0.02 0.03 0.03 0.03
0.04 0.05 0.03 0.03 0.02 0.02 0.01 0.02 0.03 0.03 0.03 0.03 0.05 0.04 0.05 0.04 0.03 0.04 0.05 0.07 0.08 0.07 0.05 0.04 0.04 0.06 0.06 0.04 0.02 0.02 0.02 0.02 0.02 0.02 0.02 0.02 0.02 0.03 0.04 0.03 0.03 0.03 0.03
0.05 0.04 0.03 0.03 0.02 0.02 0.02 0.02 0.02 0.03 0.03 0.03 0.04 0.06 0.06 0.05 0.05 0.06 0.06 0.06 0.05 0.05 0.04 0.05 0.04 0.04 0.02 0.01 0.01 0.02 0.02 0.01 0.01 0.02 0.02 0.02 0.03 0.04 0.04 0.05 0.05 0.05 0.05
0.06 0.05 0.04 0.03 0.03 0.02 0.03 0.03 0.05 0.07 0.07 0.07 0.07 0.08 0.08 0.07 0.05 0.05 0.05 0.05 0.05 0.06 0.07 0.06 0.04 0.02 0.03 0.03 0.02 0.02 0.03 0.03 0.02 0.03 0.03 0.03 0.03 0.03 0.03 0.04 0.04 0.04 0.05
0.04 0.05 0.05 0.04 0.04 0.03 0.04 0.05 0.07 0.09 0.10 0.08 0.08 0.09 0.10 0.10 0.08 0.07 0.07 0.06 0.04 0.06 0.08 0.07 0.05 0.03 0.04 0.04 0.02 0.02 0.03 0.03 0.02 0.02 0.03 0.04 0.04 0.03 0.02 0.03 0.04 0.04 0.04
0.04 0.05 0.05 0.05 0.04 0.03 0.03 0.03 0.03 0.03 0.04 0.04 0.05 0.06 0.07 0.07 0.09 0.09 0.08 0.06 0.05 0.04 0.05 0.05 0.04 0.04 0.03 0.04 0.04 0.03 0.02 0.02 0.01 0.01 0.01 0.02 0.02 0.02 0.02 0.03 0.03 0.04 0.04
0.04 0.04 0.04 0.05 0.03 0.03 0.03 0.03 0.03 0.03 0.04 0.04 0.04 0.05 0.06 0.06 0.06 0.07 0.07 0.06 0.04 0.05 0.04 0.04 0.04 0.04 0.04 0.03 0.03 0.02 0.02 0.02 0.02 0.02 0.01 0.01 0.01 0.01 0.02 0.02 0.03 0.04 0.04
0.03 0.03 0.03 0.04 0.04 0.03 0.03 0.03 0.03 0.04 0.06 0.05 0.05 0.06 0.08 0.08 0.08 0.07 0.07 0.07 0.06 0.05 0.06 0.05 0.04 0.03 0.03 0.03 0.03 0.02 0.02 0.02 0.02 0.02 0.02 0.01 0.01 0.01 0.01 0.02 0.02 0.04 0.05
0.02 0.03 0.04 0.05 0.05 0.05 0.04 0.03 0.03 0.04 0.05 0.06 0.07 0.07 0.07 0.08 0.10 0.09 0.09 0.09 0.08 0.07 0.06 0.05 0.05 0.04 0.04 0.03 0.03 0.02 0.01 0.01 0.02 0.02 0.02 0.02 0.02 0.02 0.02 0.02 0.02 0.03 0.03
0.03 0.02 0.03 0.04 0.07 0.07 0.07 0.06 0.04 0.04 0.04 0.04 0.05 0.05 0.06 0.06 0.09 0.12 0.12 0.12 0.10 0.07 0.06 0.05 0.05 0.05 0.04 0.04 0.04 0.03 0.02 0.02 0.02 0.02 0.03 0.03 0.03 0.03 0.02 0.03 0.03 0.03 0.03
0.04 0.03 0.03 0.03 0.05 0.05 0.05 0.05 0.05 0.04 0.04 0.04 0.04 0.05 0.06 0.05 0.05 0.07 0.10 0.10 0.09 0.07 0.05 0.04 0.04 0.04 0.03 0.03 0.03 0.03 0.02 0.02 0.02 0.03 0.03 0.03 0.03 0.03 0.03 0.02 0.03 0.03 0.03
0.04 0.04 0.04 0.03 0.04 0.05 0.06 0.06 0.05 0.05 0.05 0.06 0.05 0.06 0.06 0.06 0.05 0.03 0.03 0.04 0.04 0.03 0.02 0.02 0.02 0.02 0.03 0.02 0.02 0.02 0.02 0.02 0.01 0.01 0.03 0.03 0.02 0.03 0.02 0.02 0.02 0.02 0.02
0.02 0.02 0.03 0.04 0.04 0.04 0.04 0.05 0.07 0.08 0.08 0.07 0.07 0.06 0.05 0.05 0.05 0.04 0.03 0.02 0.03 0.03 0.02 0.02 0.02 0.01 0.02 0.01 0.01 0.01 0.01 0.01 0.01 0.01 0.01 0.02 0.03 0.03 0.03 0.02 0.03 0.03 0.03
0.03 0.02 0.02 0.03 0.03 0.04 0.04 0.04 0.04 0.06 0.07 0.07 0.07 0.07 0.05 0.05 0.04 0.04 0.03 0.03 0.02 0.02 0.02 0.02 0.02 0.01 0.01 0.02 0.01 0.01 0.01 0.01 0.01 0.01 0.01 0.01 0.01 0.02 0.03 0.03 0.04 0.03 0.03
0.03 0.02 0.02 0.02 0.03 0.04 0.04 0.03 0.04 0.05 0.05 0.05 0.05 0.05 0.04 0.03 0.03 0.03 0.03 0.03 0.02 0.02 0.01 0.02 0.02 0.02 0.02 0.02 0.02 0.01 0.01 0.01 0.01 0.01 0.01 0.01 0.01 0.01 0.02 0.02 0.03 0.03 0.04
0.01 0.02 0.02 0.02 0.02 0.02 0.02 0.02 0.02 0.02 0.03 0.03 0.03 0.04 0.05 0.04 0.03 0.02 0.02 0.01 0.01 0.01 0.01 0.01 0.02 0.02 0.03 0.03 0.02 0.02 0.02 0.01 0.01 0.01 0.01 0.01 0.02 0.02 0.02 0.02 0.03 0.05 0.06
0.02 0.01 0.01 0.01 0.01 0.01 0.01 0.01 0.01 0.02 0.02 0.03 0.03 0.03 0.04 0.04 0.03 0.02 0.02 0.02 0.02 0.01 0.02 0.02 0.02 0.03 0.03 0.03 0.03 0.03 0.02 0.02 0.02 0.02 0.02 0.03 0.03 0.03 0.04 0.04 0.06 0.07 0.07
0.02 0.01 0.01 0.01 0.01 0.01 0.01 0.01 0.02 0.02 0.02 0.02 0.02 0.02 0.02 0.02 0.02 0.02 0.02 0.02 0.02 0.02 0.02 0.02 0.03 0.03 0.02 0.02 0.02 0.02 0.02 0.02 0.02 0.03 0.04 0.03 0.03 0.04 0.04 0.05 0.06 0.06 0.05
0.01 0.01 0.01 0.00 0.00 0.01 0.01 0.01 0.02 0.02 0.02 0.02 0.01 0.01 0.01 0.02 0.02 0.02 0.02 0.02 0.02 0.02 0.02 0.02 0.02 0.03 0.03 0.02 0.02 0.02 0.03 0.03 0.03 0.03 0.03 0.03 0.03 0.03 0.03 0.04 0.05 0.06 0.06
0.01 0.01 0.01 0.01 0.01 0.01 0.01 0.01 0.01 0.01 0.01 0.02 0.02 0.02 0.02 0.02 0.02 0.01 0.02 0.02 0.02 0.02 0.02 0.02 0.02 0.03 0.02 0.02 0.02 0.03 0.03 0.03 0.02 0.03 0.03 0.04 0.03 0.03 0.03 0.04 0.05 0.07 0.08
0.01 0.01 0.02 0.01 0.01 0.02 0.02 0.02 0.02 0.02 0.02 0.01 0.01 0.01 0.02 0.02 0.02 0.01 0.02 0.02 0.02 0.02 0.04 0.03 0.03 0.02 0.02 0.03 0.03 0.04 0.03 0.02 0.03 0.03 0.04 0.03 0.03 0.03 0.03 0.04 0.04 0.05 0.06
0.02 0.02 0.03 0.03 0.03 0.02 0.02 0.02 0.02 0.02 0.02 0.02 0.01 0.01 0.02 0.02 0.02 0.03 0.03 0.02 0.02 0.03 0.04 0.04 0.04 0.04 0.04 0.04 0.03 0.03 0.03 0.02 0.02 0.02 0.03 0.03 0.02 0.03 0.03 0.03 0.03 0.04 0.05
0.02 0.02 0.03 0.03 0.03 0.03 0.03 0.02 0.02 0.02 0.02 0.02 0.01 0.01 0.01 0.01 0.01 0.02 0.02 0.03 0.04 0.03 0.05 0.05 0.04 0.03 0.03 0.02 0.02 0.02 0.01 0.01 0.02 0.02 0.02 0.02 0.02 0.02 0.02 0.02 0.03 0.04 0.04
MSLP
1011.30 1011.97 1012.60 1013.16 1013.62 1013.97 1014.21 1014.35 1014.44 1014.48 1014.50 1014.52 1014.54 1014.58 1014.62 1014.66 1014.70 1014.73 1014.77 1014.81 1014.88 1014.97 1015.09 1015.23 1015.39 1015.54 1015.68 1015.77 1015.81 1015.77 1015.67 1015.50 1015.28 1015.02 1014.74 1014.46 1014.20 1013.97 1013.77 1013.59 1013.45 1013.32 1013.20
1011.07 1011.69 1012.26 1012.76 1013.17 1013.49 1013.71 1013.85 1013.93 1013.97 1014.00 1014.02 1014.05 1014.10 1014.15 1014.21 1014.27 1014.33 1014.39 1014.46 1014.54 1014.63 1014.75 1014.89 1015.03 1015.18 1015.31 1015.41 1015.45 1015.44 1015.37 1015.24 1015.05 1014.82 1014.57 1014.31 1014.05 1013.80 1013.58 1013.39 1013.22 1013.07 1012.93
1010.83 1011.37 1011.87 1012.31 1012.68 1012.96 1013.17 1013.31 1013.40 1013.46 1013.51 1013.56 1013.62 1013.69 1013.76 1013.84 1013.91 1013.98 1014.05 1014.11 1014.18 1014.26 1014.35 1014.46 1014.59 1014.71 1014.83 1014.93 1014.99 1015.01 1014.99 1014.90 1014.77 1014.59 1014.38 1014.15 1013.91 1013.67 1013.43 1013.21 1013.01 1012.83 1012.65
1010.50 1010.97 1011.40 1011.78 1012.09 1012.35 1012.56 1012.72 1012.85 1012.96 1013.06 1013.16 1013.26 1013.36 1013.46 1013.55 1013.63 1013.69 1013.74 1013.78 1013.82 1013.86 1013.91 1013.98 1014.07 1014.16 1014.27 1014.37 1014.45 1014.51 1014.53 1014.51 1014.44 1014.33 1014.18 1013.99 1013.78 1013.55 1013.31 1013.07 1012.83 1012.61 1012.39
1010.02 1010.42 1010.78 1011.11 1011.39 1011.64 1011.87 1012.07 1012.26 1012.43 1012.60 1012.77 1012.93 1013.07 1013.19 1013.29 1013.36 1013.41 1013.43 1013.44 1013.43 1013.43 1013.43 1013.46 1013.50 1013.57 1013.65 1013.75 1013.85 1013.95 1014.02 1014.06 1014.07 1014.03 1013.94 1013.81 1013.63 1013.42 1013.19 1012.94 1012.67 1012.41 1012.15
1009.39 1009.72 1010.03 1010.31 1010.57 1010.83 1011.08 1011.34 1011.59 1011.84 1012.09 1012.32 1012.53 1012.70 1012.85 1012.95 1013.02 1013.05 1013.04 1013.01 1012.97 1012.93 1012.90 1012.89 1012.90 1012.95 1013.02 1013.12 1013.24 1013.36 1013.48 1013.57 1013.64 1013.66 1013.63 1013.56 1013.42 1013.25 1013.03 1012.78 1012.50 1012.21 1011.91
1008.66 1008.92 1009.17 1009.42 1009.67 1009.93 1010.21 1010.50 1010.81 1011.12 1011.42 1011.69 1011.94 1012.14 1012.30 1012.40 1012.46 1012.48 1012.46 1012.42 1012.37 1012.32 1012.28 1012.27 1012.28 1012.32 1012.39 1012.50 1012.63 1012.77 1012.91 1013.04 1013.14 1013.21 1013.23 1013.20 1013.11 1012.97 1012.78 1012.54 1012.27 1011.98 1011.67
1007.89 1008.09 1008.29 1008.50 1008.72 1008.98 1009.26 1009.57 1009.89 1010.22 1010.53 1010.82 1011.06 1011.26 1011.41 1011.52 1011.58 1011.61 1011.61 1011.60 1011.59 1011.58 1011.58 1011.60 1011.63 1011.70 1011.79 1011.90 1012.03 1012.17 1012.31 1012.45 1012.57 1012.66 1012.70 1012.70 1012.65 1012.55 1012.39 1012.19 1011.96 1011.69 1011.40
1007.19 1007.33 1007.47 1007.62 1007.81 1008.03 1008.28 1008.56 1008.85 1009.13 1009.41 1009.65 1009.86 1010.02 1010.15 1010.25 1010.33 1010.40 1010.46 1010.53 1010.60 1010.68 1010.77 1010.87 1010.97 1011.08 1011.20 1011.32 1011.44 1011.56 1011.68 1011.79 1011.89 1011.98 1012.03 1012.05 1012.02 1011.96 1011.86 1011.72 1011.54 1011.33 1011.09
1006.63 1006.69 1006.77 1006.86 1006.99 1007.14 1007.32 1007.51 1007.71 1007.90 1008.08 1008.23 1008.36 1008.47 1008.57 1008.67 1008.78 1008.91 1009.07 1009.25 1009.46 1009.67 1009.89 1010.10 1010.29 1010.46 1010.61 1010.73 1010.83 1010.92 1010.99 1011.05 1011.11 1011.16 1011.20 1011.23 1011.24 1011.22 1011.19 1011.12 1011.03 1010.90 1010.74
1006.22 1006.22 1006.23 1006.25 1006.28 1006.34 1006.40 1006.47 1006.54 1006.59 1006.63 1006.65 1006.68 1006.71 1006.77 1006.88 1007.03 1007.25 1007.53 1007.86 1008.23 1008.60 1008.97 1009.30 1009.59 1009.82 1009.99 1010.10 1010.17 1010.20 1010.21 1010.21 1010.21 1010.22 1010.24 1010.27 1010.31 1010.36 1010.40 1010.42 1010.43 1010.41 1010.35
1005.96 1005.89 1005.83 1005.77 1005.71 1005.64 1005.57 1005.49 1005.39 1005.28 1005.16 1005.04 1004.95 1004.91 1004.94 1005.06 1005.27 1005.59 1006.00 1006.48 1007.00 1007.53 1008.04 1008.49 1008.85 1009.13 1009.31 1009.39 1009.41 1009.37 1009.31 1009.24 1009.18 1009.16 1009.17 1009.22 1009.30 1009.41 1009.53 1009.66 1009.78 1009.87 1009.93
1005.79 1005.67 1005.53 1005.39 1005.22 1005.04 1004.83 1004.59 1004.33 1004.05 1003.78 1003.54 1003.35 1003.24 1003.25 1003.38 1003.66 1004.07 1004.60 1005.21 1005.86 1006.51 1007.12 1007.65 1008.06 1008.34 1008.50 1008.55 1008.50 1008.40 1008.27 1008.14 1008.05 1008.00 1008.02 1008.10 1008.24 1008.43 1008.65 1008.89 1009.11 1009.32 1009.47
1005.67 1005.49 1005.29 1005.06 1004.80 1004.50 1004.16 1003.79 1003.39 1002.98 1002.58 1002.24 1001.97 1001.83 1001.83 1001.99 1002.32 1002.80 1003.41 1004.11 1004.85 1005.57 1006.22 1006.76 1007.17 1007.42 1007.54 1007.52 1007.42 1007.25 1007.08 1006.92 1006.82 1006.79 1006.85 1006.99 1007.21 1007.49 1007.81 1008.14 1008.47 1008.77 1009.01
1005.55 1005.31 1005.05 1004.74 1004.40 1004.00 1003.56 1003.08 1002.58 1002.08 1001.61 1001.20 1000.91 1000.75 1000.76 1000.95 1001.31 1001.83 1002.48 1003.20 1003.95 1004.66 1005.29 1005.78 1006.13 1006.33 1006.37 1006.30 1006.14 1005.95 1005.76 1005.61 1005.55 1005.58 1005.71 1005.94 1006.26 1006.64 1007.05 1007.48 1007.88 1008.25 1008.54
1005.40 1005.12 1004.79 1004.42 1004.00 1003.53 1003.02 1002.47 1001.91 1001.37 1000.87 1000.45 1000.15 1000.00 1000.02 1000.22 1000.60 1001.11 1001.74 1002.42 1003.11 1003.74 1004.28 1004.68 1004.93 1005.03 1005.01 1004.88 1004.70 1004.51 1004.36 1004.28 1004.29 1004.43 1004.67 1005.02 1005.45 1005.93 1006.43 1006.93 1007.38 1007.78 1008.09
1005.24 1004.90 1004.51 1004.08 1003.60 1003.08 1002.53 1001.95 1001.37 1000.82 1000.32 999.92 999.64 999.50 999.54 999.73 1000.08 1000.54 1001.09 1001.68 1002.25 1002.75 1003.14 1003.42 1003.55 1003.56 1003.47 1003.32 1003.16 1003.02 1002.95 1002.98 1003.13 1003.40 1003.79 1004.27 1004.82 1005.40 1005.97 1006.51 1006.99 1007.38 1007.68
1005.07 1004.67 1004.23 1003.75 1003.23 1002.67 1002.09 1001.51 1000.93 1000.40 999.92 999.54 999.29 999.16 999.18 999.34 999.63 1000.00 1000.43 1000.88 1001.29 1001.63 1001.87 1002.01 1002.03 1001.97 1001.85 1001.72 1001.61 1001.57 1001.63 1001.82 1002.13 1002.57 1003.11 1003.73 1004.39 1005.05 1005.68 1006.23 1006.71 1007.07 1007.32
1004.88 1004.44 1003.96 1003.44 1002.88 1002.31 1001.72 1001.14 1000.58 1000.06 999.61 999.25 999.00 998.87 998.85 998.95 999.14 999.39 999.68 999.96 1000.20 1000.38 1000.48 1000.50 1000.45 1000.36 1000.25 1000.18 1000.17 1000.27 1000.50 1000.86 1001.36 1001.97 1002.67 1003.41 1004.17 1004.88 1005.54 1006.09 1006.53 1006.84 1007.03
1004.67 1004.20 1003.69 1003.15 1002.58 1002.00 1001.41 1000.83 1000.29 999.79 999.35 998.98 998.72 998.54 998.47 998.47 998.55 998.67 998.80 998.93 999.02 999.06 999.05 999.00 998.92 998.84 998.80 998.83 998.96 999.23 999.63 1000.18 1000.85 1001.62 1002.45 1003.30 1004.12 1004.87 1005.52 1006.05 1006.44 1006.70 1006.82
1004.38 1003.92 1003.41 1002.87 1002.30 1001.72 1001.14 1000.58 1000.03 999.53 999.08 998.69 998.38 998.15 997.99 997.89 997.84 997.83 997.83 997.82 997.80 997.75 997.69 997.62 997.56 997.55 997.61 997.78 998.08 998.51 999.09 999.80 1000.62 1001.52 1002.44 1003.35 1004.20 1004.95 1005.58 1006.07 1006.41 1006.60 1006.66
1003.98 1003.54 1003.07 1002.56 1002.02 1001.46 1000.90 1000.34 999.79 999.27 998.80 998.37 998.00 997.68 997.43 997.23 997.07 996.94 996.84 996.75 996.66 996.58 996.52 996.49 996.51 996.61 996.80 997.12 997.58 998.17 998.90 999.73 1000.66 1001.62 1002.59 1003.52 1004.36 1005.09 1005.67 1006.11 1006.39 1006.53 1006.55
1003.42 1003.05 1002.63 1002.18 1001.69 1001.17 1000.63 1000.08 999.54 999.00 998.48 998.00 997.56 997.17 996.83 996.54 996.30 996.10 995.94 995.82 995.73 995.68 995.67 995.73 995.87 996.09 996.43 996.90 997.49 998.21 999.03 999.94 1000.91 1001.89 1002.85 1003.75 1004.54 1005.22 1005.75 1006.13 1006.36 1006.46 1006.45
1002.68 1002.40 1002.07 1001.70 1001.28 1000.81 1000.31 999.78 999.24 998.69 998.14 997.61 997.12 996.67 996.26 995.92 995.63 995.40 995.24 995.13 995.09 995.12 995.21 995.39 995.66 996.03 996.50 997.09 997.78 998.57 999.44 1000.37 1001.32 1002.27 1003.16 1003.99 1004.71 1005.30 1005.77 1006.09 1006.29 1006.37 1006.36
1001.80 1001.62 1001.39 1001.10 1000.76 1000.36 999.91 999.41 998.87 998.32 997.76 997.21 996.68 996.20 995.77 995.41 995.12 994.91 994.79 994.75 994.80 994.93 995.15 995.47 995.87 996.36 996.95 997.62 998.38 999.20 1000.06 1000.95 1001.83 1002.69 1003.49 1004.21 1004.83 1005.34 1005.73 1006.01 1006.18 1006.26 1006.26
1000.80 1000.72 1000.58 1000.39 1000.12 999.79 999.39 998.94 998.43 997.89 997.34 996.79 996.27 995.79 995.38 995.05 994.80 994.66 994.61 994.67 994.84 995.10 995.45 995.90 996.42 997.03 997.69 998.42 999.19 999.99 1000.81 1001.62 1002.40 1003.14 1003.82 1004.42 1004.93 1005.35 1005.67 1005.91 1006.06 1006.14 1006.17
Thickness
5793 5790 5788 5787 5785 5782 5780 5778 5776 5774 5773 5771 5769 5767 5765 5763 5762 5759 5758 5755 5752 5750 5748 5747 5744 5744 5744 5743 5741 5739 5736 5733 5728 5730 5730 5727 5723 5721 5719 5717 5716 5713 5710
5791 5788 5786 5784 5782 5781 5779 5776 5774 5772 5770 5768 5766 5764 5762 5760 5758 5756 5754 5753 5750 5748 5746 5744 5742 5742 5739 5738 5736 5735 5734 5731 5727 5723 5723 5723 5719 5718 5716 5714 5714 5712 5709
5790 5786 5783 5781 5779 5778 5776 5774 5772 5770 5768 5766 5764 5761 5759 5757 5755 5753 5752 5750 5749 5747 5745 5742 5740 5737 5734 5734 5731 5731 5730 5730 5726 5722 5720 5718 5716 5715 5712 5711 5710 5707 5706
5786 5783 5779 5777 5775 5775 5773 5771 5769 5767 5765 5763 5761 5758 5756 5754 5752 5750 5749 5747 5745 5744 5742 5739 5736 5734 5731 5729 5728 5725 5724 5722 5721 5718 5716 5714 5712 5711 5707 5706 5704 5704 5702
5781 5778 5775 5773 5772 5771 5768 5767 5765 5763 5762 5759 5757 5755 5753 5751 5750 5747 5745 5744 5741 5739 5738 5736 5733 5729 5725 5724 5725 5722 5719 5717 5716 5714 5711 5709 5707 5703 5702 5703 5700 5699 5698
5777 5774 5771 5769 5767 5765 5763 5761 5759 5758 5756 5754 5752 5750 5748 5749 5744 5740 5738 5739 5738 5735 5732 5731 5729 5726 5721 5718 5716 5714 5712 5711 5710 5707 5706 5702 5699 5699 5698 5697 5695 5693 5691
5772 5770 5768 5765 5763 5761 5760 5757 5755 5753 5751 5749 5747 5745 5744 5741 5737 5734 5731 5733 5734 5730 5727 5725 5726 5725 5718 5716 5712 5708 5707 5704 5701 5701 5700 5698 5696 5695 5692 5691 5689 5687 5685
5768 5765 5763 5760 5758 5757 5754 5751 5748 5747 5745 5743 5742 5741 5739 5736 5732 5729 5726 5728 5729 5725 5722 5720 5718 5716 5714 5709 5708 5706 5704 5702 5699 5697 5696 5694 5693 5690 5687 5685 5683 5681 5681
5762 5760 5759 5757 5754 5752 5748 5745 5743 5741 5740 5739 5738 5736 5734 5731 5727 5725 5721 5723 5722 5720 5718 5716 5713 5709 5703 5700 5700 5698 5697 5696 5694 5691 5688 5687 5684 5682 5680 5679 5678 5676 5675
5758 5756 5755 5753 5750 5747 5744 5741 5739 5737 5735 5734 5733 5732 5729 5726 5721 5719 5716 5720 5717 5716 5713 5710 5704 5701 5695 5692 5692 5691 5689 5689 5689 5687 5683 5681 5680 5678 5674 5672 5672 5670 5669
5754 5751 5749 5747 5744 5743 5740 5737 5734 5732 5730 5728 5726 5725 5723 5720 5716 5713 5710 5713 5712 5710 5708 5705 5701 5692 5689 5685 5683 5684 5682 5680 5681 5680 5679 5678 5677 5675 5672 5668 5666 5664 5662
5747 5744 5742 5740 5739 5738 5734 5731 5728 5726 5723 5722 5719 5718 5717 5715 5711 5707 5704 5702 5702 5701 5700 5698 5693 5686 5683 5679 5677 5675 5673 5671 5675 5675 5673 5672 5671 5669 5667 5664 5660 5657 5655
5739 5736 5734 5732 5731 5729 5727 5725 5723 5722 5722 5719 5717 5714 5711 5710 5706 5701 5697 5695 5692 5692 5692 5687 5683 5679 5677 5675 5671 5669 5667 5668 5668 5667 5666 5665 5664 5662 5659 5656 5653 5650 5648
5730 5727 5726 5724 5722 5720 5719 5720 5719 5718 5717 5714 5712 5709 5706 5703 5700 5697 5694 5691 5686 5685 5684 5681 5676 5673 5672 5669 5667 5666 5666 5665 5662 5660 5659 5658 5657 5654 5652 5649 5647 5644 5642
5722 5720 5718 5717 5715 5712 5712 5711 5711 5709 5709 5706 5705 5703 5699 5696 5691 5687 5686 5685 5683 5681 5677 5675 5674 5672 5670 5668 5666 5664 5661 5659 5656 5654 5652 5650 5649 5647 5644 5642 5638 5636 5634
5714 5712 5712 5711 5709 5707 5705 5703 5700 5699 5696 5694 5692 5691 5690 5685 5681 5678 5675 5673 5670 5668 5667 5669 5667 5666 5663 5661 5659 5657 5654 5652 5649 5647 5644 5642 5640 5638 5636 5634 5631 5628 5626
5706 5705 5705 5705 5703 5701 5700 5697 5694 5690 5686 5684 5682 5680 5679 5675 5672 5669 5666 5663 5661 5659 5661 5662 5660 5658 5656 5654 5653 5651 5648 5645 5642 5640 5637 5635 5633 5631 5628 5626 5623 5620 5618
5699 5697 5696 5695 5695 5694 5693 5691 5689 5687 5684 5681 5676 5671 5669 5667 5664 5661 5658 5656 5657 5655 5657 5656 5654 5652 5650 5647 5646 5643 5640 5638 5636 5633 5631 5629 5626 5623 5620 5618 5615 5612 5609
5692 5692 5690 5689 5687 5687 5685 5684 5683 5680 5678 5676 5674 5668 5662 5659 5656 5653 5651 5654 5655 5654 5652 5650 5648 5646 5643 5640 5638 5635 5632 5630 5628 5626 5624 5621 5619 5616 5613 5610 5607 5603 5600
5683 5681 5680 5680 5680 5679 5678 5676 5675 5673 5671 5670 5668 5665 5660 5657 5655 5651 5649 5649 5649 5648 5646 5645 5642 5639 5637 5634 5631 5627 5625 5623 5621 5619 5616 5613 5611 5608 5605 5602 5599 5597 5595
5677 5676 5671 5673 5673 5672 5670 5669 5667 5665 5664 5662 5660 5658 5652 5654 5652 5650 5647 5644 5642 5641 5640 5638 5636 5633 5630 5627 5624 5621 5618 5617 5614 5611 5608 5604 5602 5599 5597 5594 5592 5590 5588
5670 5670 5668 5666 5665 5663 5662 5661 5660 5659 5657 5655 5653 5651 5644 5647 5647 5645 5643 5640 5638 5636 5634 5631 5629 5626 5623 5620 5617 5615 5612 5609 5605 5601 5598 5596 5593 5591 5589 5587 5585 5583 5582
5660 5660 5659 5658 5657 5652 5652 5653 5652 5651 5650 5648 5647 5645 5641 5640 5640 5638 5636 5634 5631 5629 5627 5623 5620 5618 5614 5611 5609 5606 5602 5599 5595 5591 5588 5587 5585 5584 5582 5580 5578 5576 5574
5652 5651 5650 5649 5647 5646 5646 5645 5645 5644 5643 5642 5640 5638 5636 5633 5633 5631 5629 5628 5625 5622 5618 5615 5612 5609 5605 5602 5600 5597 5593 5588 5585 5583 5579 5578 5577 5576 5574 5572 5571 5569 5567
5643 5642 5640 5639 5639 5638 5638 5637 5637 5636 5635 5634 5633 5631 5629 5627 5626 5624 5622 5619 5616 5613 5610 5607 5604 5601 5597 5593 5589 5586 5580 5577 5574 5571 5570 5569 5569 5568 5566 5565 5563 5561 5559
5635 5634 5634 5633 5631 5630 5630 5630 5629 5628 5627 5626 5624 5623 5622 5620 5618 5616 5613 5610 5608 5605 5601 5599 5595 5591 5587 5584 5579 5574 5570 5567 5564 5561 5560 5561 5561 5560 5558 5556 5555 5553 5552